Zurück zum Katalog

VEP

AktivMilitärGTO
NORAD 22979·PAYLOAD·🇯🇵 Japan

Gestartet Feb 3, 1994 von Tanegashima Space Center

Loading…

TLE

VeraltetSource: Space-Track

Epoche: Sep 13, 2026, 08:20 UTC

1 22979U 94007B   26256.34744821 -.00000070  00000-0  39666-3 0  9994
2 22979  29.1910 349.0827 7229381 343.7241   1.9442  2.25996907268298

Verfolge VEP in Echtzeit mit AllMySat

Download on the App Store